KD4TJG Weather Reports


Display with metric or nautical units.
time (UTC)temp
F
wind
direction
speed
MPH
gust
MPH
rain 1hr
in
rain 24hr
in
rain mn
in
humidity
%
barometer
mb
20260503015522 46 0 0.0 0.0 0.00 0.00 0.00 80 1014.5
20260503015409 47 0 0.0 0.0 0.00 0.00 0.00 80 1016.5
20260503015021 47 0 0.0 1.0 0.00 0.00 0.00 80 1014.4
20260503014549 47 0 0.0 2.0 0.00 0.00 0.00 79 1014.3
20260503014336 48 0 0.0 0.0 0.00 0.00 0.00 79 1016.2
20260503014022 47 0 0.0 3.0 0.00 0.00 0.00 79 1014.3
20260503013522 48 273 0.0 3.0 0.00 0.00 0.00 78 1014.1
20260503013335 48 273 0.0 1.0 0.00 0.00 0.00 78 1016.2
20260503013045 48 0 0.0 1.0 0.00 0.00 0.00 77 1014.1
20260503012521 48 0 0.0 1.0 0.00 0.00 0.00 77 1014.0
20260503012335 49 281 0.0 0.0 0.00 0.00 0.00 76 1015.9
20260503012022 49 0 0.0 1.0 0.00 0.00 0.00 75 1013.8
20260503011542 49 0 0.0 2.0 0.00 0.00 0.00 74 1013.7
20260503011310 50 281 0.0 1.0 0.00 0.00 0.00 74 1015.7
20260503011021 50 281 0.0 2.0 0.00 0.00 0.00 73 1013.6
20260503010525 50 0 0.0 2.0 0.00 0.00 0.00 74 1013.5
20260503010324 51 258 0.0 1.0 0.00 0.00 0.00 73 1015.5
20260503010046 51 258 1.0 2.0 0.00 0.00 0.00 73 1013.5
20260503005522 51 0 0.0 2.0 0.00 0.00 0.00 73 1013.4
20260503005337 52 274 0.0 1.0 0.00 0.00 0.00 72 1015.4
20260503005024 52 0 0.0 1.0 0.00 0.00 0.00 69 1013.3
20260503004600 52 0 0.0 1.0 0.00 0.00 0.00 69 1013.1
20260503004338 53 274 0.0 0.0 0.00 0.00 0.00 70 1015.2
20260503004023 53 274 0.0 2.0 0.00 0.00 0.00 70 1013.2
20260503003522 53 0 0.0 2.0 0.00 0.00 0.00 71 1013.1
20260503003044 53 0 0.0 2.0 0.00 0.00 0.00 66 1013.0
20260503002522 54 339 0.0 2.0 0.00 0.00 0.00 69 1013.0
20260503002220 54 273 0.0 0.0 0.00 0.00 0.00 69 1014.8
20260503002022 54 273 0.0 1.0 0.00 0.00 0.00 69 1012.9
20260503001546 54 0 0.0 1.0 0.00 0.00 0.00 69 1012.9
20260503001150 55 273 0.0 0.0 0.00 0.00 0.00 68 1014.8
20260503001022 54 273 0.0 1.0 0.00 0.00 0.00 68 1012.8
20260503000523 54 0 0.0 0.0 0.00 0.00 0.00 68 1012.8
20260503000204 55 273 0.0 0.0 0.00 0.00 0.00 68 1014.7
20260503000044 55 0 0.0 1.0 0.00 0.00 0.00 69 1012.8
20260502235523 55 0 0.0 2.0 0.00 0.00 0.00 68 1012.7
20260502235209 55 273 0.0 0.0 0.00 0.00 0.00 68 1014.6
20260502235021 55 273 0.0 2.0 0.00 0.00 0.00 68 1012.6
20260502234550 55 273 0.0 3.0 0.00 0.00 0.00 68 1012.5
20260502234226 56 305 0.0 0.0 0.00 0.00 0.00 67 1014.5
20260502234021 55 0 0.0 3.0 0.00 0.00 0.00 67 1012.4
20260502233521 55 219 1.0 3.0 0.00 0.00 0.00 67 1012.3
20260502233224 56 243 0.0 1.0 0.00 0.00 0.00 66 1014.3
20260502233042 56 0 0.0 2.0 0.00 0.00 0.00 66 1012.2
20260502232524 56 75 0.0 1.0 0.00 0.00 0.00 63 1012.1
20260502232222 56 52 0.0 0.0 0.00 0.00 0.00 63 1014.2
20260502232021 56 0 0.0 1.0 0.00 0.00 0.00 64 1012.0
20260502231539 56 0 0.0 1.0 0.00 0.00 0.00 63 1012.0
20260502231227 57 49 0.0 0.0 0.00 0.00 0.00 62 1014.0
20260502231022 57 0 0.0 1.0 0.00 0.00 0.00 60 1011.9
20260502230522 57 0 0.0 1.0 0.00 0.00 0.00 57 1011.8
20260502230244 58 49 0.0 0.0 0.00 0.00 0.00 58 1013.8
20260502230046 57 0 0.0 1.0 0.00 0.00 0.00 58 1011.8
20260502225521 58 0 0.0 1.0 0.00 0.00 0.00 57 1011.8
20260502225214 58 49 0.0 0.0 0.00 0.00 0.00 56 1013.8
20260502225021 58 0 0.0 2.0 0.00 0.00 0.00 58 1011.8
20260502224545 58 0 0.0 2.0 0.00 0.00 0.00 54 1011.7
20260502224143 59 49 0.0 1.0 0.00 0.00 0.00 51 1013.7
20260502224022 59 41 0.0 2.0 0.00 0.00 0.00 51 1011.7
20260502223522 59 0 0.0 2.0 0.00 0.00 0.00 49 1011.7
20260502223122 60 149 0.0 3.0 0.00 0.00 0.00 48 1013.6
20260502223045 59 149 0.0 2.0 0.00 0.00 0.00 47 1011.6
20260502222523 59 149 0.0 5.0 0.00 0.00 0.00 44 1011.4
20260502222145 60 135 1.0 3.0 0.00 0.00 0.00 45 1013.4
20260502222021 60 162 1.0 5.0 0.00 0.00 0.00 45 1011.4
20260502221540 60 147 1.0 5.0 0.00 0.00 0.00 46 1011.2
20260502221155 61 131 1.0 4.0 0.00 0.00 0.00 44 1013.3
20260502221021 61 220 1.0 5.0 0.00 0.00 0.00 43 1011.2
20260502220522 61 151 3.0 5.0 0.00 0.00 0.00 44 1011.2
20260502220206 61 189 1.0 5.0 0.00 0.00 0.00 44 1013.2
20260502220042 61 0 0.0 6.0 0.00 0.00 0.00 45 1011.1
20260502215523 61 51 1.0 7.0 0.00 0.00 0.00 43 1011.1
20260502215204 61 154 2.0 5.0 0.00 0.00 0.00 44 1013.1
20260502215022 61 110 3.0 7.0 0.00 0.00 0.00 44 1010.9
20260502214544 61 357 2.0 4.0 0.00 0.00 0.00 44 1010.9
20260502214201 62 75 1.0 4.0 0.00 0.00 0.00 44 1013.0
20260502214022 61 18 1.0 4.0 0.00 0.00 0.00 47 1011.0
20260502213522 61 120 1.0 5.0 0.00 0.00 0.00 44 1011.0
20260502213146 61 143 1.0 8.0 0.00 0.00 0.00 45 1012.9
20260502213043 60 127 2.0 5.0 0.00 0.00 0.00 44 1010.9
20260502212522 60 121 2.0 9.0 0.00 0.00 0.00 46 1010.9
20260502212124 60 120 3.0 8.0 0.00 0.00 0.00 44 1012.8
20260502212021 60 0 1.0 9.0 0.00 0.00 0.00 44 1010.8
20260502211541 61 142 4.0 10.0 0.00 0.00 0.00 44 1010.7
20260502211128 61 109 3.0 7.0 0.00 0.00 0.00 46 1012.7
20260502211021 60 129 4.0 10.0 0.00 0.00 0.00 45 1010.9
20260502210521 61 326 2.0 9.0 0.00 0.00 0.00 45 1010.8
20260502210144 61 91 3.0 7.0 0.00 0.00 0.00 44 1012.8
20260502210048 61 150 4.0 9.0 0.00 0.00 0.00 44 1010.8
20260502205521 61 58 1.0 4.0 0.00 0.00 0.00 47 1010.9
20260502205205 61 159 1.0 4.0 0.00 0.00 0.00 47 1012.9
20260502205023 60 50 1.0 5.0 0.00 0.00 0.00 46 1010.9
20260502204548 61 345 2.0 5.0 0.00 0.00 0.00 45 1010.9
20260502204212 61 7 1.0 4.0 0.00 0.00 0.00 45 1013.0
20260502204022 60 50 2.0 5.0 0.00 0.00 0.00 45 1010.9
20260502203526 61 357 2.0 5.0 0.00 0.00 0.00 44 1011.1
20260502203237 61 312 1.0 7.0 0.00 0.00 0.00 47 1013.1
20260502203046 60 94 2.0 7.0 0.00 0.00 0.00 45 1011.1
20260502202522 60 207 1.0 8.0 0.00 0.00 0.00 46 1011.3
20260502202022 59 51 1.0 8.0 0.00 0.00 0.00 46 1011.3
20260502201546 59 45 3.0 10.0 0.00 0.00 0.00 47 1011.3
20260502201023 60 55 4.0 10.0 0.00 0.00 0.00 46 1011.4
20260502200526 60 99 3.0 9.0 0.00 0.00 0.00 47 1011.4
20260502200049 59 106 4.0 9.0 0.00 0.00 0.00 50 1011.5
20260502200036 60 122 3.0 8.0 0.00 0.00 0.00 50 1013.6
20260502195521 58 98 4.0 9.0 0.00 0.00 0.00 47 1011.6
20260502195038 59 112 3.0 5.0 0.00 0.00 0.00 46 1013.9
20260502195021 58 120 3.0 6.0 0.00 0.00 0.00 46 1011.9
20260502194540 58 85 2.0 6.0 0.00 0.00 0.00 48 1012.0
20260502194034 57 14 1.0 7.0 0.00 0.00 0.00 48 1014.1
20260502194022 57 63 2.0 6.0 0.00 0.00 0.00 48 1012.1
20260502193522 57 261 1.0 5.0 0.00 0.00 0.00 49 1012.2
20260502193047 58 115 1.0 7.0 0.00 0.00 0.00 52 1014.2
20260502193042 57 85 1.0 8.0 0.00 0.00 0.00 49 1012.2
20260502192522 57 104 3.0 8.0 0.00 0.00 0.00 49 1012.2
20260502192021 57 338 1.0 6.0 0.00 0.00 0.00 51 1012.2
20260502191543 57 304 1.0 7.0 0.00 0.00 0.00 51 1012.3
20260502191028 56 114 3.0 8.0 0.00 0.00 0.00 49 1012.2
20260502190852 57 130 3.0 6.0 0.00 0.00 0.00 49 1014.3
20260502190521 56 110 4.0 8.0 0.00 0.00 0.00 50 1012.3
20260502190045 56 80 2.0 5.0 0.00 0.00 0.00 49 1012.4
20260502185838 57 118 1.0 4.0 0.00 0.00 0.00 50 1014.4
20260502185521 56 348 1.0 7.0 0.00 0.00 0.00 50 1012.5
20260502185022 56 30 3.0 7.0 0.00 0.00 0.00 49 1012.6
20260502184850 57 75 1.0 6.0 0.00 0.00 0.00 48 1014.6
20260502184540 57 129 1.0 8.0 0.00 0.00 0.00 51 1012.6
20260502184022 56 347 2.0 8.0 0.00 0.00 0.00 53 1012.7
20260502183847 56 0 1.0 6.0 0.00 0.00 0.00 52 1014.7
20260502183521 55 39 3.0 8.0 0.00 0.00 0.00 51 1012.7
20260502183043 54 0 1.0 7.0 0.00 0.00 0.00 52 1012.7
20260502182845 55 354 1.0 4.0 0.00 0.00 0.00 51 1014.7
20260502182522 55 80 2.0 7.0 0.00 0.00 0.00 53 1012.9
20260502182022 54 80 1.0 4.0 0.00 0.00 0.00 52 1012.8
20260502181843 55 16 0.0 2.0 0.00 0.00 0.00 51 1014.9
20260502181545 54 8 1.0 4.0 0.00 0.00 0.00 53 1012.8
20260502181021 54 95 1.0 4.0 0.00 0.00 0.00 52 1012.8
20260502180847 55 286 0.0 4.0 0.00 0.00 0.00 52 1014.8
20260502180524 54 328 0.0 4.0 0.00 0.00 0.00 53 1012.9
20260502164021 54 310 2.0 5.0 0.00 0.00 0.00 53 1013.8
20260502163522 54 0 0.0 3.0 0.00 0.00 0.00 54 1014.0
20260502163512 54 226 0.0 2.0 0.00 0.00 0.00 54 1016.1
20260502163050 53 192 0.0 3.0 0.00 0.00 0.00 53 1014.1
20260502162522 53 12 0.0 3.0 0.00 0.00 0.00 54 1014.0
20260502162512 54 16 0.0 1.0 0.00 0.00 0.00 54 1016.1
20260502162023 53 246 1.0 4.0 0.00 0.00 0.00 52 1014.3
20260502161539 53 29 1.0 4.0 0.00 0.00 0.00 52 1014.2
20260502161502 53 44 1.0 4.0 0.00 0.00 0.00 52 1016.2
20260502161021 53 353 1.0 5.0 0.00 0.00 0.00 52 1014.3
20260502160525 53 0 1.0 5.0 0.00 0.00 0.00 54 1014.4
20260502160522 53 90 1.0 4.0 0.00 0.00 0.00 54 1016.4
20260502152325 53 329 1.0 6.0 0.00 0.00 0.00 53 1016.5
20260502152020 53 0 1.0 7.0 0.00 0.00 0.00 55 1014.4
20260502151553 53 14 1.0 7.0 0.00 0.00 0.00 54 1014.3
20260502151340 53 357 1.0 6.0 0.00 0.00 0.00 56 1016.3
20260502151021 53 306 1.0 5.0 0.00 0.00 0.00 56 1014.4
20260502150520 53 326 1.0 4.0 0.00 0.00 0.00 55 1014.4
20260502150340 53 318 1.0 7.0 0.00 0.00 0.00 54 1016.3
20260502140130 53 68 1.0 5.0 0.00 0.00 0.00 59 1016.2
20260502130521 52 3 1.0 3.0 0.00 0.00 0.00 67 1014.0
20260502123522 52 0 1.0 3.0 0.00 0.00 0.00 70 1013.1
20260502123049 52 0 1.0 3.0 0.00 0.00 0.00 73 1013.0
20260502122825 52 6 0.0 1.0 0.00 0.00 0.00 75 1015.2
20260502122525 52 0 0.0 1.0 0.00 0.00 0.00 75 1013.2
20260502122023 51 0 0.0 1.0 0.00 0.00 0.00 76 1013.1
20260502121833 52 105 0.0 0.0 0.00 0.00 0.00 76 1015.3
20260502121540 51 0 0.0 2.0 0.00 0.00 0.00 76 1013.3
20260502121020 51 0 0.0 2.0 0.00 0.00 0.00 76 1013.4
20260502120849 52 105 0.0 1.0 0.00 0.00 0.00 76 1015.4
20260502120521 51 105 0.0 2.0 0.00 0.00 0.00 77 1013.2
20260502115821 52 295 0.0 0.0 0.00 0.00 0.00 78 1015.2
20260502115520 51 0 0.0 1.0 0.00 0.00 0.00 78 1013.3
20260502115020 51 0 0.0 2.0 0.00 0.00 0.00 78 1013.4
20260502114828 52 273 0.0 0.0 0.00 0.00 0.00 79 1015.4
20260502114541 51 273 0.0 2.0 0.00 0.00 0.00 79 1013.3
20260502114019 51 222 0.0 2.0 0.00 0.00 0.00 79 1013.1
20260502113842 51 279 0.0 0.0 0.00 0.00 0.00 80 1015.0
20260502113521 51 0 0.0 1.0 0.00 0.00 0.00 81 1013.0
20260502113036 51 0 0.0 2.0 0.00 0.00 0.00 83 1013.1
20260502112826 51 219 0.0 0.0 0.00 0.00 0.00 83 1015.3
20260502112521 50 0 0.0 2.0 0.00 0.00 0.00 84 1013.1
20260502112022 51 294 0.0 2.0 0.00 0.00 0.00 85 1013.1
20260502111755 51 285 0.0 0.0 0.00 0.00 0.00 85 1015.2
20260502111538 50 0 0.0 2.0 0.00 0.00 0.00 85 1013.2
20260502111021 50 0 0.0 2.0 0.00 0.00 0.00 86 1013.0
20260502110743 51 85 0.0 0.0 0.00 0.00 0.00 86 1015.0
20260502110521 50 0 0.0 2.0 0.00 0.00 0.00 87 1013.0
20260502110042 50 0 0.0 1.0 0.00 0.00 0.00 87 1013.0
20260502105729 50 166 0.0 0.0 0.00 0.00 0.00 87 1015.1
20260502105524 50 0 0.0 1.0 0.00 0.00 0.00 87 1013.0
20260502105021 50 0 0.0 1.0 0.00 0.00 0.00 88 1013.0
20260502104659 50 166 0.0 0.0 0.00 0.00 0.00 87 1014.9
20260502104543 50 0 0.0 1.0 0.00 0.00 0.00 88 1012.9
20260502104017 50 166 0.0 1.0 0.00 0.00 0.00 88 1013.0
20260502103708 50 166 0.0 0.0 0.00 0.00 0.00 88 1015.0
20260502103523 50 0 0.0 0.0 0.00 0.00 0.00 88 1013.0
20260502103041 50 0 0.0 1.0 0.00 0.00 0.00 88 1013.0
20260502102644 50 166 0.0 0.0 0.00 0.00 0.00 88 1015.0
20260502102520 50 0 0.0 1.0 0.00 0.00 0.00 88 1013.1
20260502102018 50 0 0.0 1.0 0.00 0.00 0.00 88 1013.1
20260502101551 50 0 0.0 1.0 0.00 0.00 0.00 88 1013.1
20260502101018 50 0 0.0 1.0 0.00 0.00 0.00 88 1013.1
20260502100655 50 166 0.0 0.0 0.00 0.00 0.00 88 1015.1
20260502100522 50 0 0.0 1.0 0.00 0.00 0.00 88 1013.1
20260502100103 50 0 0.0 0.0 0.00 0.00 0.00 88 1013.1
20260502091020 50 166 0.0 1.0 0.00 0.00 0.00 88 1013.2
20260502090518 50 0 0.0 0.0 0.00 0.00 0.00 88 1013.1
20260502090506 51 166 0.0 0.0 0.00 0.00 0.00 88 1015.1
20260502071018 51 0 0.0 1.0 0.00 0.00 0.00 87 1011.9
20260502070521 51 0 0.0 1.0 0.00 0.00 0.00 87 1012.0
20260502070241 51 166 0.0 0.0 0.00 0.00 0.00 87 1014.1
20260502070042 51 0 0.0 1.0 0.00 0.00 0.00 87 1012.0
20260502065517 51 0 0.0 1.0 0.00 0.00 0.00 87 1012.0
20260502065228 51 166 0.0 0.0 0.00 0.00 0.00 87 1014.1
20260502065020 51 0 0.0 1.0 0.00 0.00 0.00 87 1012.1
20260502064543 51 0 0.0 1.0 0.00 0.00 0.00 86 1012.2
20260502064220 52 166 0.0 0.0 0.00 0.00 0.00 86 1014.2
20260502064025 51 166 0.0 1.0 0.00 0.00 0.00 86 1012.2
20260502063523 51 0 0.0 0.0 0.00 0.00 0.00 86 1012.3
20260502063157 52 166 0.0 0.0 0.00 0.00 0.00 86 1014.4
20260502063042 51 0 0.0 0.0 0.00 0.00 0.00 86 1012.4
20260502062520 51 0 0.0 1.0 0.00 0.00 0.00 86 1012.4
20260502062020 51 0 0.0 2.0 0.00 0.00 0.00 86 1012.5
20260502061541 51 0 0.0 2.0 0.00 0.00 0.00 86 1012.6
20260502061020 52 166 0.0 2.0 0.00 0.00 0.00 85 1012.6
20260502061013 52 166 0.0 1.0 0.00 0.00 0.00 85 1014.6
20260502060520 52 0 0.0 2.0 0.00 0.00 0.00 85 1012.7
20260502060041 52 0 0.0 2.0 0.00 0.00 0.00 85 1012.7
20260502060031 52 277 0.0 0.0 0.00 0.00 0.00 85 1014.7
20260502055520 52 0 0.0 2.0 0.00 0.00 0.00 85 1012.8
20260502055018 52 0 0.0 2.0 0.00 0.00 0.00 85 1012.8
20260502054539 52 226 0.0 2.0 0.00 0.00 0.00 85 1012.7
20260502054021 52 245 0.0 3.0 0.00 0.00 0.00 85 1012.8
20260502053854 52 345 0.0 0.0 0.00 0.00 0.00 85 1014.8
20260502053519 52 345 0.0 3.0 0.00 0.00 0.00 85 1012.8
20260502053037 52 351 1.0 4.0 0.00 0.00 0.00 85 1012.8
20260502052827 52 347 1.0 3.0 0.00 0.00 0.00 85 1014.9
20260502052518 52 0 0.0 4.0 0.00 0.00 0.00 85 1012.7
20260502052021 52 351 2.0 4.0 0.00 0.00 0.00 84 1012.8
20260502051534 52 141 0.0 3.0 0.00 0.00 0.00 84 1012.3
20260502051017 52 141 1.0 3.0 0.00 0.00 0.00 84 1012.2
20260502050525 52 0 0.0 3.0 0.00 0.00 0.00 85 1012.2
20260502050045 52 154 1.0 3.0 0.00 0.00 0.00 84 1012.3
20260502045523 52 176 1.0 2.0 0.00 0.00 0.00 84 1012.3
20260502045023 52 0 0.0 3.0 0.00 0.00 0.00 84 1012.3
20260502044542 52 176 0.0 3.0 0.00 0.00 0.00 84 1012.2
20260502044303 53 176 0.0 2.0 0.00 0.00 0.00 84 1014.4
20260502044022 52 176 0.0 3.0 0.00 0.00 0.00 84 1012.4
20260502043522 52 0 0.0 3.0 0.00 0.00 0.00 84 1012.3
20260502043307 53 203 0.0 0.0 0.00 0.00 0.00 83 1014.4
20260502043042 53 203 1.0 2.0 0.00 0.00 0.00 83 1012.4
20260502042522 53 0 0.0 3.0 0.00 0.00 0.00 83 1012.3
20260502042233 53 160 0.0 0.0 0.00 0.00 0.00 83 1014.4
20260502042022 53 0 0.0 3.0 0.00 0.00 0.00 83 1012.4
20260502041539 53 147 1.0 3.0 0.00 0.00 0.00 83 1012.4
20260502041235 53 150 1.0 2.0 0.00 0.00 0.00 83 1014.3
20260502041022 53 143 1.0 3.0 0.00 0.00 0.00 83 1012.4
20260502040525 53 147 1.0 3.0 0.00 0.00 0.00 83 1012.5
20260502040216 53 147 0.0 2.0 0.00 0.00 0.00 82 1014.4
20260502040040 53 188 1.0 2.0 0.00 0.00 0.00 82 1012.4
20260502035522 53 188 0.0 2.0 0.00 0.00 0.00 82 1012.5
20260502035233 54 188 0.0 1.0 0.00 0.00 0.00 82 1014.7
20260502035025 53 188 1.0 2.0 0.00 0.00 0.00 82 1012.6
20260502034544 53 0 0.0 2.0 0.00 0.00 0.00 82 1012.7
20260502034211 54 188 1.0 3.0 0.00 0.00 0.00 82 1014.6
20260502034022 53 0 0.0 4.0 0.00 0.00 0.00 82 1012.6
20260502033522 54 0 1.0 4.0 0.00 0.00 0.00 81 1012.7
20260502033214 54 181 1.0 3.0 0.00 0.00 0.00 81 1014.7
20260502033041 54 220 2.0 4.0 0.00 0.00 0.00 81 1012.7
20260502032522 54 184 0.0 4.0 0.00 0.00 0.00 81 1012.8
20260502032026 54 0 0.0 3.0 0.00 0.00 0.00 81 1012.8
20260502031540 54 194 1.0 3.0 0.00 0.00 0.00 81 1012.9
20260502031022 54 167 0.0 3.0 0.00 0.00 0.00 80 1012.8
20260502030523 54 169 0.0 3.0 0.00 0.00 0.00 80 1012.8
20260502030042 54 158 1.0 7.0 0.00 0.00 0.00 80 1012.8
20260502025946 55 142 1.0 5.0 0.00 0.00 0.00 80 1014.8
20260502025522 54 167 1.0 7.0 0.00 0.00 0.00 80 1012.8
20260502025022 55 141 2.0 7.0 0.00 0.00 0.00 80 1012.8
20260502024914 55 189 1.0 5.0 0.00 0.00 0.00 80 1014.8
20260502024550 55 0 2.0 8.0 0.00 0.00 0.00 79 1012.8
20260502024024 55 181 3.0 8.0 0.00 0.00 0.00 79 1012.8
20260502023852 55 162 1.0 4.0 0.00 0.00 0.00 79 1014.9
20260502023522 55 170 2.0 6.0 0.00 0.00 0.00 79 1012.8
20260502023036 55 162 2.0 6.0 0.00 0.00 0.00 79 1012.9
20260502022522 55 216 1.0 9.0 0.00 0.00 0.00 79 1012.8
20260502022021 55 116 3.0 9.0 0.00 0.00 0.00 79 1012.8
20260502021652 56 122 2.0 7.0 0.00 0.00 0.00 79 1014.7
20260502021541 55 154 3.0 9.0 0.00 0.00 0.00 79 1012.7
20260502021026 55 170 3.0 7.0 0.00 0.00 0.00 79 1012.7
20260502020704 56 159 3.0 7.0 0.00 0.00 0.00 78 1014.7
20260502020523 56 166 2.0 9.0 0.00 0.00 0.00 79 1012.7
20260502020041 56 133 3.0 9.0 0.00 0.00 0.00 78 1012.5
20260502015729 56 145 3.0 9.0 0.00 0.00 0.00 78 1014.5